GW2200 Weather Reports


Display with metric or nautical units.
time (UTC)temp
F
wind
direction
speed
MPH
gust
MPH
rain 1hr
in
rain 24hr
in
rain mn
in
humidity
%
barometer
mb
20240224150026 42 0 0.0 0.0 0.00 0.07 0.04 96 997.2
20240224145526 42 0 0.0 0.0 0.00 0.07 0.04 95 997.2
20240224145025 41 0 0.0 0.0 0.00 0.07 0.04 95 997.3
20240224144525 41 0 0.0 0.0 0.01 0.07 0.04 95 997.3
20240224144025 41 0 0.0 0.0 0.02 0.07 0.04 94 997.2
20240224143547 41 0 0.0 0.0 0.03 0.07 0.04 94 997.3
20240224143047 41 0 0.0 0.0 0.03 0.07 0.04 94 997.3
20240224142526 41 0 0.0 0.0 0.03 0.07 0.04 94 997.3
20240224142026 41 0 0.0 0.0 0.03 0.07 0.04 94 997.4
20240224141525 41 225 0.0 5.0 0.03 0.07 0.04 93 997.4
20240224141047 41 239 1.0 5.0 0.03 0.07 0.04 93 997.4
20240224140525 42 244 2.0 7.0 0.03 0.07 0.04 93 997.5
20240224140047 42 236 2.0 9.0 0.03 0.07 0.04 92 997.4
20240224135525 42 247 3.0 9.0 0.04 0.07 0.04 92 997.3
20240224135026 42 246 4.0 11.0 0.04 0.07 0.04 92 997.4
20240224134525 42 230 5.0 15.0 0.03 0.06 0.03 91 997.3
20240224134025 43 220 5.0 15.0 0.02 0.05 0.02 92 997.4
20240224133525 43 210 4.0 13.0 0.01 0.04 0.01 92 997.2
20240224133026 43 189 4.0 14.0 0.01 0.04 0.01 92 996.9
20240224132526 43 185 4.0 16.0 0.01 0.04 0.01 92 996.9
20240224132026 43 187 5.0 16.0 0.01 0.04 0.01 92 996.8
20240224131525 44 186 4.0 12.0 0.01 0.04 0.01 92 996.7
20240224131025 44 201 5.0 13.0 0.01 0.04 0.01 91 996.6
20240224130527 44 199 5.0 13.0 0.01 0.04 0.01 90 996.7
20240224130026 44 181 3.0 12.0 0.01 0.04 0.01 90 996.6
20240224125525 44 186 3.0 12.0 0.00 0.03 0.00 88 996.5
20240224125025 44 187 4.0 12.0 0.00 0.03 0.00 88 996.4
20240224124526 44 177 5.0 15.0 0.00 0.03 0.00 88 996.4
20240224124048 44 174 5.0 15.0 0.00 0.03 0.00 88 996.4
20240224123525 44 184 5.0 12.0 0.00 0.03 0.00 88 996.3
20240224123047 44 185 4.0 17.0 0.00 0.03 0.00 88 996.2
20240224122525 44 176 4.0 17.0 0.00 0.03 0.00 88 996.1
20240224122025 44 185 3.0 12.0 0.00 0.03 0.00 88 996.2
20240224121525 44 179 4.0 12.0 0.00 0.03 0.00 88 996.2
20240224121025 44 171 5.0 13.0 0.00 0.03 0.00 87 996.0
20240224120525 44 176 4.0 13.0 0.00 0.03 0.00 88 996.1
20240224120026 44 176 4.0 13.0 0.00 0.03 0.00 88 996.0
20240224115525 44 178 3.0 10.0 0.00 0.03 0.00 89 996.1
20240224115025 44 178 3.0 16.0 0.00 0.03 0.00 89 996.0
20240224114525 44 174 4.0 16.0 0.00 0.03 0.00 88 995.9
20240224114025 44 177 4.0 16.0 0.00 0.03 0.00 88 995.8
20240224113525 44 178 4.0 16.0 0.00 0.03 0.00 88 996.0
20240224113047 44 174 3.0 12.0 0.00 0.03 0.00 89 995.9
20240224112525 44 180 4.0 14.0 0.00 0.03 0.00 90 996.0
20240224112026 44 179 5.0 14.0 0.00 0.03 0.00 90 995.8
20240224111547 44 173 4.0 13.0 0.00 0.03 0.00 91 995.9
20240224111046 44 175 4.0 11.0 0.00 0.03 0.00 91 995.9
20240224110526 43 169 4.0 10.0 0.00 0.03 0.00 92 995.7
20240224110025 43 166 4.0 12.0 0.00 0.03 0.00 92 995.7
20240224105525 43 171 3.0 12.0 0.00 0.03 0.00 92 995.7
20240224105027 43 171 3.0 12.0 0.00 0.03 0.00 92 995.7
20240224104525 43 178 4.0 13.0 0.00 0.03 0.00 92 995.7
20240224104027 43 197 4.0 13.0 0.00 0.03 0.00 92 995.6
20240224103525 43 186 3.0 11.0 0.00 0.03 0.00 92 995.5
20240224103026 43 172 3.0 12.0 0.00 0.03 0.00 92 995.5
20240224102525 43 173 4.0 13.0 0.00 0.03 0.00 92 995.3
20240224102025 43 169 4.0 14.0 0.00 0.03 0.00 92 995.3
20240224101525 43 174 4.0 14.0 0.00 0.03 0.00 92 995.3
20240224101025 43 177 4.0 14.0 0.00 0.03 0.00 93 995.2
20240224100547 43 169 4.0 14.0 0.00 0.03 0.00 94 995.1
20240224100026 43 166 3.0 12.0 0.00 0.03 0.00 95 995.2
20240224095525 43 175 2.0 12.0 0.00 0.03 0.00 95 995.0
20240224095025 43 175 1.0 10.0 0.00 0.03 0.00 96 995.1
20240224094526 43 164 2.0 10.0 0.00 0.03 0.00 97 994.9
20240224094025 43 165 1.0 10.0 0.00 0.03 0.00 98 994.8
20240224093525 42 170 1.0 10.0 0.00 0.03 0.00 98 994.7
20240224093026 42 167 1.0 10.0 0.00 0.03 0.00 98 994.8
20240224092526 42 167 1.0 9.0 0.00 0.03 0.00 98 994.7
20240224092025 42 172 1.0 9.0 0.00 0.04 0.00 99 994.7
20240224091525 42 175 1.0 8.0 0.00 0.04 0.00 99 994.6
20240224091025 41 175 1.0 8.0 0.00 0.04 0.00 99 994.5
20240224090525 41 166 2.0 10.0 0.00 0.04 0.00 99 994.6
20240224090026 41 166 3.0 10.0 0.00 0.05 0.00 99 994.6
20240224085525 41 173 3.0 9.0 0.00 0.05 0.00 99 994.7
20240224085025 41 169 3.0 12.0 0.00 0.05 0.00 99 994.6
20240224084526 41 166 2.0 12.0 0.00 0.05 0.00 100 994.6
20240224084025 41 170 2.0 12.0 0.00 0.05 0.00 100 994.6
20240224083525 40 176 1.0 12.0 0.00 0.06 0.00 100 994.5
20240224083025 40 173 1.0 10.0 0.00 0.06 0.00 100 994.4
20240224082525 40 168 1.0 10.0 0.00 0.08 0.00 100 994.6
20240224082026 40 166 1.0 9.0 0.00 0.09 0.00 100 994.6
20240224081525 40 171 1.0 5.0 0.00 0.10 0.00 100 994.5
20240224081025 40 166 1.0 8.0 0.00 0.10 0.00 100 994.4
20240224080526 40 161 1.0 8.0 0.00 0.10 0.00 100 994.3
20240224080025 40 159 0.0 7.0 0.00 0.10 0.00 100 994.3
20240224075525 39 155 0.0 5.0 0.00 0.10 0.00 100 994.4
20240224075046 39 150 0.0 6.0 0.00 0.10 0.00 99 994.4
20240224074546 39 152 1.0 6.0 0.00 0.10 0.00 99 994.4
20240224074025 39 153 0.0 5.0 0.00 0.10 0.00 99 994.2
20240224073525 39 153 0.0 6.0 0.00 0.10 0.00 99 994.2
20240224073025 39 154 0.0 6.0 0.00 0.10 0.00 99 994.1
20240224072525 39 156 0.0 3.0 0.00 0.10 0.00 99 993.9
20240224072025 39 0 0.0 3.0 0.00 0.10 0.00 99 993.7
20240224071527 39 162 0.0 7.0 0.00 0.10 0.00 99 993.7
20240224071026 39 165 1.0 8.0 0.00 0.10 0.00 99 993.8
20240224070525 39 164 1.0 8.0 0.00 0.10 0.00 99 993.8
20240224070047 39 167 1.0 6.0 0.00 0.10 0.00 99 993.7
20240224065546 39 170 1.0 6.0 0.00 0.10 0.00 99 993.6
20240224065025 39 160 0.0 8.0 0.00 0.10 0.00 99 993.5
20240224064525 39 160 0.0 8.0 0.00 0.10 0.00 99 993.4
20240224064025 39 162 0.0 4.0 0.00 0.10 0.00 99 993.4
20240224063525 39 156 0.0 6.0 0.00 0.10 0.00 99 993.4
20240224063025 39 167 1.0 7.0 0.00 0.10 0.00 99 993.3
20240224062526 39 172 0.0 7.0 0.00 0.10 0.00 99 993.3
20240224062025 39 159 0.0 2.0 0.00 0.10 0.00 99 993.2
20240224061525 39 191 0.0 4.0 0.00 0.10 0.00 99 993.2
20240224061046 39 175 0.0 6.0 0.00 0.10 0.00 99 993.2
20240224060548 39 124 3.0 10.0 0.00 0.10 0.00 99 993.2
20240224060026 39 161 1.0 10.0 0.00 0.10 0.00 99 993.2
20240224055547 39 159 1.0 10.0 0.00 0.10 0.00 99 993.1
20240224055048 39 174 0.0 5.0 0.00 0.10 0.00 99 993.1
20240224054527 39 164 0.0 5.0 0.00 0.10 0.00 99 993.1
20240224054027 39 161 0.0 4.0 0.00 0.10 0.00 98 993.0
20240224053527 39 164 0.0 4.0 0.00 0.10 0.00 99 992.9
20240224053027 39 0 0.0 0.0 0.00 0.10 0.00 98 992.9
20240224052528 39 165 0.0 6.0 0.00 0.10 0.00 98 992.8
20240224052048 39 165 0.0 6.0 0.00 0.10 0.00 98 992.7
20240224051527 39 172 0.0 4.0 0.00 0.10 0.00 98 992.7
20240224051026 39 179 0.0 4.0 0.00 0.10 0.00 98 992.7
20240224050527 39 172 0.0 5.0 0.00 0.10 0.00 98 992.6
20240224050048 39 168 0.0 5.0 0.00 0.10 0.00 98 992.6
20240224045526 39 164 1.0 8.0 0.00 0.10 0.00 98 992.6
20240224045027 39 156 1.0 9.0 0.00 0.10 0.00 98 992.5
20240224044527 39 155 0.0 9.0 0.00 0.10 0.00 98 992.6
20240224044027 39 159 1.0 7.0 0.00 0.10 0.00 98 992.4
20240224043526 39 162 1.0 7.0 0.00 0.10 0.00 98 992.3
20240224043026 39 165 2.0 7.0 0.00 0.10 0.00 98 992.3
20240224042548 39 170 1.0 7.0 0.00 0.10 0.00 98 992.3
20240224042027 39 169 2.0 7.0 0.00 0.10 0.00 98 992.2
20240224041526 40 160 2.0 9.0 0.00 0.10 0.00 98 992.1
20240224041027 40 160 2.0 11.0 0.00 0.10 0.00 98 992.1
20240224040527 40 166 2.0 11.0 0.00 0.10 0.00 98 992.1
20240224040026 40 165 2.0 9.0 0.00 0.10 0.00 98 992.1
20240224035549 40 160 2.0 11.0 0.00 0.10 0.00 98 992.1
20240224035026 40 161 2.0 11.0 0.00 0.10 0.00 98 992.0
20240224034527 40 165 1.0 8.0 0.00 0.10 0.00 98 991.9
20240224034027 40 159 1.0 8.0 0.00 0.10 0.00 98 992.1
20240224033526 40 159 2.0 8.0 0.00 0.10 0.00 98 991.9
20240224033026 40 161 1.0 8.0 0.00 0.10 0.00 98 991.9
20240224032548 40 160 1.0 8.0 0.00 0.10 0.00 98 992.0
20240224032048 40 166 2.0 8.0 0.00 0.10 0.00 98 992.1
20240224031548 40 171 2.0 8.0 0.00 0.11 0.00 98 992.0
20240224031026 40 169 2.0 7.0 0.00 0.11 0.00 98 992.0
20240224030527 40 165 1.0 9.0 0.00 0.11 0.00 98 992.1
20240224030047 40 169 1.0 9.0 0.00 0.11 0.00 98 992.0
20240224025527 40 172 1.0 6.0 0.00 0.11 0.00 98 992.0
20240224025048 40 171 2.0 9.0 0.00 0.11 0.00 98 992.0
20240224024527 40 172 2.0 9.0 0.00 0.11 0.00 98 992.0
20240224024027 40 172 2.0 8.0 0.00 0.11 0.00 98 992.0
20240224023526 40 169 2.0 9.0 0.00 0.11 0.00 98 991.9
20240224023026 40 169 2.0 9.0 0.00 0.11 0.00 98 991.8
20240224022526 40 175 2.0 9.0 0.00 0.11 0.00 98 991.9
20240224022026 40 175 2.0 9.0 0.00 0.11 0.00 98 991.8
20240224021526 40 172 2.0 8.0 0.00 0.11 0.00 98 991.9
20240224021027 40 169 2.0 8.0 0.00 0.11 0.00 98 991.8
20240224020548 40 170 2.0 8.0 0.00 0.11 0.00 98 991.8
20240224020027 40 173 2.0 8.0 0.00 0.11 0.00 98 991.7
20240224015526 40 170 2.0 8.0 0.00 0.11 0.00 98 991.9
20240224015027 40 169 2.0 8.0 0.00 0.11 0.00 98 991.7
20240224014527 40 173 2.0 8.0 0.00 0.11 0.00 98 991.7
20240224014026 40 172 2.0 10.0 0.00 0.11 0.00 98 991.7
20240224013526 40 169 2.0 10.0 0.00 0.11 0.00 98 991.6
20240224013027 40 172 2.0 9.0 0.00 0.11 0.00 98 991.6
20240224012527 40 165 2.0 9.0 0.00 0.11 0.00 98 991.7
20240224012026 40 162 3.0 10.0 0.00 0.11 0.00 98 991.7
20240224011527 40 162 3.0 10.0 0.00 0.11 0.00 98 991.8
20240224011026 40 155 1.0 8.0 0.00 0.11 0.00 97 991.8
20240224010547 40 158 1.0 8.0 0.00 0.11 0.00 97 991.8
20240224010028 40 165 1.0 8.0 0.00 0.11 0.00 97 991.7
20240224005526 40 168 2.0 8.0 0.00 0.11 0.00 97 991.8
20240224005026 40 166 2.0 8.0 0.00 0.11 0.00 97 991.7
20240224004526 41 170 2.0 8.0 0.00 0.11 0.00 97 991.5
20240224004048 41 172 2.0 8.0 0.00 0.11 0.00 97 991.5
20240224003526 41 165 3.0 9.0 0.00 0.11 0.00 97 991.6
20240224003026 41 167 3.0 9.0 0.00 0.11 0.00 97 991.6
20240224002527 41 163 3.0 9.0 0.00 0.11 0.00 97 991.6
20240224002026 41 161 3.0 11.0 0.00 0.11 0.00 97 991.5
20240224001526 41 167 3.0 11.0 0.00 0.11 0.00 97 991.5
20240224001048 41 171 3.0 11.0 0.00 0.11 0.00 97 991.5
20240224000547 41 171 2.0 11.0 0.00 0.11 0.00 97 991.5
20240224000026 41 170 2.0 12.0 0.00 0.11 0.00 97 991.6
20240223235527 41 166 3.0 12.0 0.00 0.11 0.00 96 991.4
20240223235027 41 164 2.0 10.0 0.00 0.11 0.00 96 991.5
20240223234526 41 167 2.0 12.0 0.00 0.11 0.00 96 991.3
20240223234026 42 167 3.0 12.0 0.00 0.11 0.00 96 991.4
20240223233526 42 169 2.0 10.0 0.00 0.11 0.00 96 991.3
20240223233028 42 171 2.0 9.0 0.00 0.11 0.00 96 991.2
20240223232527 42 169 2.0 9.0 0.00 0.11 0.00 96 991.1
20240223232026 42 168 2.0 13.0 0.00 0.11 0.00 96 991.1
20240223231526 42 168 3.0 13.0 0.00 0.11 0.00 96 991.1
20240223231026 42 167 3.0 8.0 0.00 0.12 0.00 96 991.1
20240223230526 42 158 3.0 11.0 0.00 0.12 0.00 96 991.1
20240223230029 42 156 3.0 11.0 0.00 0.13 0.00 96 991.1
20240223225526 42 161 3.0 9.0 0.00 0.13 0.13 97 991.1
20240223225026 42 164 3.0 9.0 0.00 0.15 0.13 96 991.1
20240223224526 42 170 3.0 9.0 0.00 0.16 0.13 96 991.1
20240223224026 42 172 2.0 10.0 0.00 0.16 0.13 96 991.1
20240223223526 42 169 2.0 10.0 0.00 0.17 0.13 96 991.2
20240223223048 42 156 2.0 10.0 0.00 0.17 0.13 96 991.1
20240223222526 42 156 3.0 10.0 0.00 0.19 0.13 96 991.0
20240223222026 42 166 2.0 8.0 0.00 0.19 0.13 96 991.0
20240223221526 42 173 2.0 10.0 0.00 0.20 0.13 96 991.1
20240223221047 42 173 2.0 10.0 0.00 0.20 0.13 96 991.0
20240223220526 42 165 2.0 9.0 0.00 0.20 0.13 96 991.0
20240223220026 42 162 2.0 9.0 0.00 0.21 0.13 96 991.0
20240223215526 42 163 3.0 10.0 0.00 0.21 0.13 96 990.9
20240223215047 42 161 2.0 10.0 0.00 0.22 0.13 96 991.0
20240223214526 42 161 2.0 8.0 0.00 0.23 0.13 96 990.9
20240223214026 42 158 1.0 8.0 0.00 0.24 0.13 96 990.8
20240223213526 42 162 2.0 10.0 0.00 0.24 0.13 96 990.7
20240223213026 42 162 3.0 10.0 0.00 0.25 0.13 96 990.8
20240223212526 42 160 3.0 11.0 0.00 0.26 0.13 96 990.8
20240223212026 42 158 3.0 11.0 0.00 0.27 0.13 96 990.7
20240223211526 42 158 3.0 11.0 0.01 0.28 0.13 96 990.7
20240223211027 42 159 3.0 12.0 0.01 0.30 0.13 96 990.6
20240223210526 42 161 3.0 12.0 0.01 0.31 0.13 96 990.6
20240223210026 42 164 2.0 8.0 0.02 0.31 0.13 96 990.6
20240223205526 42 162 2.0 10.0 0.02 0.32 0.13 96 990.7
20240223205026 42 160 2.0 10.0 0.02 0.33 0.13 96 990.6
20240223204526 43 155 2.0 8.0 0.02 0.34 0.13 96 990.7
20240223204026 43 146 1.0 7.0 0.02 0.35 0.13 96 990.6
20240223203547 43 154 1.0 7.0 0.02 0.35 0.13 96 990.6
20240223203047 43 154 1.0 10.0 0.02 0.36 0.13 96 990.5
20240223202547 43 159 2.0 10.0 0.02 0.37 0.13 96 990.5
20240223202026 43 166 2.0 8.0 0.02 0.38 0.13 95 990.6
20240223201526 43 163 3.0 8.0 0.01 0.38 0.12 95 990.7
20240223201026 43 164 3.0 11.0 0.01 0.39 0.12 95 990.7
20240223200526 43 165 3.0 11.0 0.01 0.40 0.12 95 990.7
20240223200048 43 163 3.0 8.0 0.00 0.40 0.12 94 990.7
20240223195526 43 163 3.0 11.0 0.00 0.40 0.11 94 990.6
20240223195026 43 167 3.0 11.0 0.00 0.41 0.11 94 990.5
20240223194526 43 162 2.0 10.0 0.00 0.41 0.11 94 990.5
20240223194026 43 154 2.0 9.0 0.00 0.42 0.11 94 990.6
20240223193526 43 157 1.0 9.0 0.00 0.42 0.11 94 990.5
20240223193026 43 157 2.0 8.0 0.00 0.42 0.11 93 990.5
20240223192549 43 162 2.0 8.0 0.00 0.42 0.11 93 990.3
20240223192026 43 171 1.0 6.0 0.00 0.42 0.11 93 990.4
20240223191528 43 167 2.0 11.0 0.00 0.42 0.11 93 990.4
20240223191026 43 164 2.0 11.0 0.00 0.42 0.11 93 990.3
20240223190526 43 158 2.0 10.0 0.00 0.42 0.11 93 990.3
20240223190047 43 161 2.0 10.0 0.00 0.42 0.11 93 990.4
20240223185547 44 167 2.0 10.0 0.00 0.42 0.11 93 990.3
20240223184527 44 160 2.0 16.0 0.00 0.42 0.11 92 990.2
20240223184026 44 159 3.0 16.0 0.00 0.42 0.11 92 990.1
20240223183526 44 162 3.0 15.0 0.00 0.42 0.11 92 990.1
20240223183047 44 170 2.0 7.0 0.00 0.43 0.11 92 990.0
20240223182547 44 165 3.0 13.0 0.00 0.44 0.11 92 990.1
20240223182026 44 165 3.0 13.0 0.02 0.44 0.11 92 990.0
20240223181526 44 169 2.0 8.0 0.02 0.44 0.11 92 990.0
20240223181026 44 168 1.0 6.0 0.02 0.44 0.11 92 989.9
20240223180526 44 176 2.0 10.0 0.02 0.44 0.11 92 989.8
20240223180026 44 177 3.0 10.0 0.02 0.44 0.11 92 989.8
20240223175526 45 178 2.0 9.0 0.02 0.44 0.11 92 989.8
20240223175026 45 177 2.0 11.0 0.02 0.44 0.11 92 989.7
20240223174526 45 171 2.0 11.0 0.02 0.44 0.11 92 989.6
20240223174026 45 171 1.0 8.0 0.02 0.45 0.11 92 989.6
20240223173526 45 173 1.0 8.0 0.02 0.62 0.11 91 989.5
20240223173026 46 166 2.0 8.0 0.02 0.65 0.11 90 989.5
20240223172526 46 166 2.0 8.0 0.02 0.67 0.11 90 989.4
20240223172026 46 180 1.0 4.0 0.00 0.67 0.09 89 989.5
20240223171527 46 170 2.0 6.0 0.00 0.67 0.09 88 989.1
20240223171027 46 166 1.0 6.0 0.00 0.68 0.09 88 989.1
20240223170526 46 165 1.0 6.0 0.00 0.68 0.09 88 989.2
20240223170026 46 166 1.0 6.0 0.00 0.69 0.09 87 989.1
20240223165526 46 217 1.0 5.0 0.00 0.69 0.09 87 989.3
20240223165026 46 210 1.0 6.0 0.00 0.69 0.09 87 989.3
20240223164526 46 177 1.0 7.0 0.00 0.69 0.09 87 989.3
20240223164026 46 175 2.0 8.0 0.00 0.69 0.09 86 989.2
20240223163526 46 180 1.0 8.0 0.00 0.69 0.09 86 989.1
20240223163026 46 196 1.0 10.0 0.00 0.69 0.09 86 989.1
20240223162526 46 197 2.0 16.0 0.00 0.69 0.09 86 989.0
20240223162047 46 194 2.0 16.0 0.00 0.69 0.09 86 989.0
20240223161526 46 188 3.0 8.0 0.00 0.69 0.09 86 989.0
20240223161026 47 185 3.0 10.0 0.00 0.69 0.09 86 989.0
20240223160526 47 201 3.0 11.0 0.00 0.69 0.09 85 989.0
20240223160026 47 200 3.0 14.0 0.00 0.69 0.09 86 989.0
20240223155548 47 187 4.0 14.0 0.00 0.69 0.09 86 988.8
20240223155026 47 189 4.0 14.0 0.00 0.69 0.09 86 988.9
20240223154526 47 187 4.0 14.0 0.00 0.69 0.09 86 988.8
20240223154026 47 187 4.0 12.0 0.00 0.69 0.09 85 988.7
20240223153548 47 184 4.0 12.0 0.00 0.69 0.09 85 988.8
20240223153026 47 195 5.0 19.0 0.00 0.69 0.09 85 988.6
20240223152526 47 205 6.0 19.0 0.00 0.69 0.09 85 988.6
20240223152026 47 205 6.0 14.0 0.00 0.70 0.09 85 988.6
20240223151526 48 200 5.0 14.0 0.00 0.70 0.09 86 988.4
20240223151026 48 197 5.0 18.0 0.00 0.70 0.09 86 988.4
20240223150547 48 197 4.0 18.0 0.00 0.70 0.09 85 988.3